Temperature
20 20 20 20 22 23 23 23 23 23 22 21 21 22 22 22 21 20 17 17 17 17 16 17 17 17 17 17 17 17 17 17 17 17 17 17 17 17 17 17 17 17 17 17 17 17 17 17 17
20 20 20 21 23 23 23 23 22 22 21 21 21 21 21 20 19 18 17 16 16 16 16 16 17 17 17 17 17 17 17 17 17 17 17 17 17 16 17 17 17 17 17 17 17 17 17 17 17
20 20 21 23 23 23 22 22 22 21 20 21 21 20 20 19 18 18 17 16 16 16 16 16 17 17 17 17 17 17 17 17 17 16 17 17 16 16 16 16 16 17 17 17 17 17 17 17 17
20 20 22 23 23 22 22 22 22 21 20 20 21 20 19 18 18 17 16 16 16 16 16 16 17 17 17 17 17 17 16 16 16 16 16 16 16 16 16 16 16 16 16 16 16 16 17 17 17
20 22 23 23 22 22 22 22 22 22 21 21 21 21 19 17 17 17 16 16 16 16 16 16 17 16 16 17 16 16 16 16 16 16 16 16 16 16 16 16 16 16 16 16 16 16 16 16 16
21 23 23 23 22 22 22 21 22 22 21 20 20 20 19 17 17 17 16 16 16 16 16 16 17 17 16 16 16 16 16 16 16 16 16 16 16 16 16 16 16 16 16 16 16 16 16 16 16
22 23 23 23 22 22 22 21 22 22 22 21 20 21 19 17 17 16 16 16 16 16 16 16 16 16 16 16 16 16 16 16 16 16 16 16 16 16 16 16 16 16 16 16 16 16 16 16 16
21 23 23 23 22 22 21 21 21 21 21 20 20 21 19 18 17 16 16 16 16 16 16 16 16 16 16 16 16 16 16 16 16 16 16 16 16 16 16 16 16 16 16 16 16 16 16 16 16
21 23 23 22 22 22 22 21 21 20 20 19 19 20 19 17 17 17 17 16 16 16 16 16 16 16 16 16 16 16 16 16 16 16 16 16 16 15 16 16 16 16 16 16 16 16 16 16 16
22 23 22 22 22 22 22 22 21 21 21 20 19 18 18 17 17 17 17 17 17 17 17 16 16 16 16 16 16 16 16 16 16 16 16 16 16 16 16 16 16 16 16 16 16 16 16 16 16
22 22 22 22 21 22 22 21 21 22 22 21 20 19 18 17 17 18 18 18 17 17 17 17 17 16 16 16 16 16 16 16 16 16 16 16 16 16 16 16 16 16 16 15 16 16 15 16 15
22 22 22 21 21 21 22 21 21 21 21 20 20 19 18 18 18 18 18 18 17 17 17 17 17 16 16 16 16 16 16 16 16 16 16 16 16 16 16 16 15 15 16 16 16 16 15 15 15
22 22 21 21 21 21 21 21 21 21 20 20 19 19 19 19 18 18 18 18 17 17 17 17 16 17 16 16 16 16 16 16 16 16 16 16 16 16 16 16 16 16 16 16 16 16 15 15 15
22 22 21 21 21 21 21 21 21 20 20 19 19 19 19 19 18 18 18 18 18 17 17 17 17 16 16 16 16 16 16 16 16 16 16 16 16 16 16 16 16 16 16 15 15 15 15 15 15
22 22 22 22 22 21 22 22 22 20 20 20 19 19 19 19 18 18 18 18 18 17 17 17 17 16 16 16 16 16 16 16 16 16 16 16 16 16 16 16 16 15 15 15 15 15 15 15 15
23 23 22 22 22 21 22 21 22 20 20 20 20 19 19 18 18 18 18 18 18 17 17 17 17 16 16 16 16 16 16 16 16 16 16 16 16 16 16 16 16 15 15 15 15 15 15 15 15
23 22 22 22 22 22 22 21 22 20 20 20 20 19 19 19 19 18 18 18 18 17 17 17 17 17 17 16 16 16 16 16 16 16 16 16 16 16 16 16 16 16 15 15 15 15 15 15 15
22 23 22 22 22 22 22 22 22 21 20 20 20 20 20 20 19 19 18 18 18 18 17 17 17 17 17 17 16 16 16 16 16 16 16 16 16 16 16 16 16 16 15 15 15 15 15 15 15
23 22 22 22 22 22 22 22 22 21 21 21 20 20 20 20 19 19 18 18 18 18 18 17 17 17 17 17 17 16 16 16 16 16 16 16 16 16 16 16 16 16 16 15 15 15 15 15 15
22 22 22 22 22 22 22 22 22 21 21 21 21 20 20 20 20 19 18 18 18 18 18 18 17 17 17 17 17 16 16 16 16 16 16 16 16 16 16 16 15 16 16 15 15 15 15 15 15
22 22 22 22 22 22 22 22 22 22 21 20 20 20 20 20 20 19 18 18 18 18 18 18 17 17 17 17 17 17 16 16 16 16 16 16 16 16 16 16 15 15 15 15 15 15 15 15 15
22 22 22 22 22 22 22 22 22 22 22 21 21 20 20 19 19 19 19 18 18 18 18 18 18 17 17 17 17 16 16 16 16 16 16 16 16 16 15 15 15 15 15 15 15 15 15 15 15
22 22 22 22 22 22 22 22 23 22 22 22 21 20 20 19 19 19 19 18 18 18 18 18 18 17 17 17 17 16 16 16 16 16 16 16 16 16 15 15 15 15 15 15 15 15 15 15 15
22 22 22 22 23 22 22 22 22 23 22 22 22 21 20 19 19 19 19 18 18 18 18 18 17 17 17 17 16 16 16 16 16 16 16 16 15 15 15 15 15 15 15 15 15 15 15 14 14
22 22 22 22 22 22 22 22 22 23 22 22 22 21 20 19 19 19 19 18 18 18 18 18 17 17 17 17 17 16 16 16 16 16 16 16 15 15 15 15 15 15 15 15 14 14 14 14 14
22 22 22 21 22 22 22 22 23 22 22 21 21 20 20 19 19 19 18 18 18 18 18 18 18 17 17 17 17 17 16 16 16 16 16 16 15 15 15 15 15 15 15 15 14 14 14 14 14
22 22 22 22 22 22 22 23 23 22 22 22 21 20 20 19 19 18 18 18 18 18 18 18 18 17 17 17 17 17 16 16 16 16 16 16 15 15 15 15 15 15 15 14 14 14 14 14 14
23 22 22 22 21 21 22 22 22 22 22 22 21 20 20 19 18 18 18 18 18 18 18 18 17 17 17 17 17 16 16 16 16 16 16 15 15 15 15 15 15 15 14 14 14 14 14 14 14
22 22 22 22 22 22 21 22 23 22 22 21 21 20 19 19 18 18 18 17 17 17 18 18 17 17 17 17 16 16 16 16 16 16 15 15 15 15 15 15 14 14 14 14 14 14 13 13 13
22 22 22 21 21 22 22 22 22 22 21 21 20 20 19 18 18 17 17 17 17 17 17 17 17 17 17 16 16 16 16 16 15 15 15 15 15 15 14 14 14 14 14 14 13 13 13 13 13
Wind_Speed
5 4 2 2 2 1 3 3 3 3 4 4 5 4 5 5 4 5 4 4 4 5 7 8 8 8 8 8 8 8 8 8 8 8 7 7 7 7 7 8 9 9 9 9 9 10 10 10 10
3 2 2 2 1 2 4 3 4 5 5 4 5 5 5 6 6 6 5 5 5 6 6 8 9 8 8 9 9 8 8 7 8 8 7 8 8 8 8 8 8 8 9 9 10 10 10 10 10
3 2 1 1 1 2 4 4 6 6 5 3 4 4 4 5 4 4 5 6 6 6 7 9 8 8 9 9 9 9 8 8 8 8 8 9 9 8 8 7 8 8 9 9 9 10 10 10 10
2 2 1 2 5 5 4 5 6 6 4 3 4 5 5 4 3 5 7 7 7 7 7 9 8 9 9 8 8 8 8 8 8 9 9 9 9 9 8 8 8 8 8 8 9 9 10 10 10
1 1 2 4 5 4 5 5 4 5 4 4 4 6 6 4 6 7 7 7 7 7 7 9 8 8 8 8 8 8 8 8 9 9 9 9 9 9 9 9 8 8 8 8 9 9 10 10 10
1 1 2 4 5 4 4 3 3 6 6 5 5 5 5 5 7 7 7 7 7 7 7 8 9 8 8 8 8 8 9 9 9 9 9 9 9 9 8 8 8 8 8 8 9 10 10 10 10
1 1 3 5 5 4 4 2 3 4 5 4 3 4 6 7 7 7 7 7 7 7 7 6 7 8 8 7 8 8 9 9 10 10 10 10 10 9 8 8 8 9 9 10 10 10 11 11 11
1 1 4 4 4 4 3 2 3 3 4 4 2 3 6 8 9 8 7 7 6 6 6 5 6 6 6 7 8 8 9 9 9 10 9 9 9 9 7 8 9 8 9 10 10 11 11 11 11
1 1 3 3 3 4 3 3 3 2 4 3 3 4 7 11 10 9 8 7 6 6 5 5 5 5 5 6 7 7 7 7 7 8 7 5 6 7 7 10 9 9 9 10 10 10 9 9 10
0 2 3 3 3 3 3 3 3 4 4 5 6 7 9 11 10 9 8 7 7 6 5 4 4 4 5 5 5 4 5 5 4 5 5 5 5 6 7 9 8 9 9 10 9 7 6 3 7
1 2 3 3 3 2 2 2 1 3 3 4 6 9 11 10 9 8 7 6 6 6 5 4 4 4 4 4 4 3 4 3 4 4 5 4 5 5 5 4 6 6 5 7 7 5 6 6 7
3 3 2 2 2 1 2 2 2 2 3 4 6 9 11 10 9 8 7 6 5 5 5 4 4 4 4 4 3 3 2 2 3 3 4 4 3 3 4 3 4 4 4 5 5 5 6 7 7
4 3 4 3 3 3 3 2 3 3 3 5 7 8 9 8 8 7 6 6 5 5 4 4 4 4 4 3 2 2 2 2 3 3 3 4 3 3 4 4 4 4 4 4 4 4 6 6 7
5 4 3 3 3 2 3 2 1 3 5 6 7 6 6 7 7 7 6 5 5 5 5 5 4 4 3 3 2 2 2 2 2 3 3 3 3 3 3 4 4 4 4 4 4 5 5 5 5
5 4 3 2 2 1 1 2 2 4 6 6 6 5 5 5 6 6 6 5 5 4 4 5 4 4 4 2 2 1 1 2 2 2 2 3 3 3 3 3 3 3 3 4 3 4 4 4 4
4 3 2 2 1 1 1 2 4 4 5 4 4 4 5 5 6 6 6 6 5 5 5 4 4 4 4 3 2 1 1 1 2 2 2 2 2 2 3 2 3 3 3 3 3 2 3 3 3
3 3 3 2 2 0 0 0 1 3 4 4 4 4 5 5 6 5 6 6 6 6 6 5 5 5 5 4 3 2 2 1 1 2 2 2 2 2 2 2 2 3 3 2 2 2 2 3 3
2 2 2 1 2 0 1 1 1 3 4 4 4 5 5 5 5 6 6 7 6 6 6 6 6 5 5 4 3 3 2 2 2 2 2 2 1 2 2 2 3 3 2 2 2 3 2 2 2
2 1 1 1 1 1 1 1 2 3 4 4 5 5 5 5 5 5 6 7 7 7 6 6 7 6 5 4 4 3 3 2 2 2 2 2 2 2 2 2 2 2 2 2 3 3 4 2 2
3 1 1 1 1 2 1 2 2 3 4 4 4 4 4 4 5 5 6 7 8 8 7 7 7 6 6 4 3 3 2 2 2 2 2 2 2 2 2 2 2 3 2 3 3 2 2 2 2
2 2 1 1 1 1 2 1 3 2 2 2 3 3 3 4 5 6 7 7 7 7 8 7 7 7 6 6 4 3 3 3 3 2 2 1 1 2 2 2 2 3 3 3 3 3 3 2 2
1 1 2 2 3 1 2 1 2 2 2 2 2 3 3 4 4 5 6 7 7 7 7 7 7 7 6 6 5 5 4 3 3 2 2 2 2 2 2 2 2 3 2 3 3 3 2 2 2
1 1 2 3 3 3 3 2 2 3 1 1 2 3 3 4 5 5 6 6 6 6 6 6 6 6 6 6 6 6 4 3 2 2 3 2 2 2 2 2 2 2 2 3 2 3 3 3 2
3 3 2 3 4 3 1 3 1 1 1 1 1 2 3 4 4 5 5 5 5 5 5 6 6 6 6 6 6 6 5 4 3 3 3 2 2 2 2 2 2 2 2 3 2 3 3 2 2
3 3 2 3 3 1 0 2 0 1 1 2 2 2 3 3 4 5 5 5 5 6 6 6 7 6 6 7 7 6 6 5 4 4 3 3 2 2 2 2 2 2 2 2 2 2 2 2 2
3 4 3 2 1 1 2 2 1 2 1 0 1 2 3 3 4 4 5 5 5 6 6 6 7 6 7 7 6 6 5 4 3 3 3 3 2 2 2 2 2 2 2 2 2 2 2 2 2
3 3 3 4 3 3 2 1 2 2 1 1 1 2 3 3 4 4 4 5 5 6 6 6 7 7 7 7 6 6 5 4 4 3 3 2 2 2 2 2 2 2 2 2 2 2 2 2 1
3 2 3 3 3 3 2 3 2 1 1 1 0 1 2 3 3 4 4 4 4 5 5 6 6 6 6 6 5 4 5 5 4 3 3 3 2 2 2 2 2 2 2 2 2 2 1 2 1
3 4 3 3 4 4 2 1 1 1 0 1 1 1 1 3 3 4 4 4 4 4 5 5 5 5 5 6 6 5 5 5 5 4 3 3 3 3 3 2 2 2 2 2 3 2 2 2 2
5 5 5 4 3 4 4 1 3 1 1 1 1 1 0 1 3 3 4 4 4 4 4 5 5 5 5 5 6 5 5 5 4 4 4 3 3 3 3 3 3 2 2 3 3 3 3 2 2
Wind_Direction
158 155 182 218 211 133 85 68 79 97 81 67 64 67 72 54 43 77 97 100 98 106 107 111 100 98 97 96 92 90 90 89 90 95 103 107 110 107 99 92 88 85 85 86 82 77 74 72 70
148 156 200 230 226 130 91 89 93 75 91 96 73 69 71 67 63 91 112 110 108 106 105 101 99 98 94 90 86 85 85 86 90 95 100 104 107 105 101 97 94 89 86 85 80 74 74 73 70
152 210 239 192 93 78 93 95 100 93 89 81 82 61 57 72 82 93 107 122 115 105 100 97 101 100 95 89 84 79 79 83 88 92 95 98 99 99 97 95 93 91 86 84 81 76 76 76 73
203 204 185 102 93 68 82 103 118 119 96 70 97 88 82 62 75 102 118 122 115 106 97 96 100 99 95 90 86 83 82 84 87 88 90 94 96 96 96 94 91 90 89 88 86 81 78 77 73
234 226 136 113 91 77 83 93 115 111 104 93 100 101 96 85 98 114 119 120 115 108 99 98 96 96 92 91 89 88 87 87 88 87 86 90 95 94 91 89 87 88 89 90 90 87 82 79 78
217 207 144 118 103 94 88 89 111 102 106 109 109 109 98 111 114 113 114 114 110 108 103 102 104 97 92 92 93 90 88 87 88 88 87 88 92 91 89 88 87 88 91 92 92 90 87 83 80
342 86 104 115 113 104 82 86 106 105 103 101 119 115 120 130 123 123 118 113 108 106 104 100 105 104 101 93 89 87 85 84 86 86 85 85 89 90 86 88 87 91 93 90 89 88 85 80 76
358 118 119 112 117 96 90 100 90 87 89 98 125 125 131 143 139 132 124 118 116 113 110 106 102 101 104 105 93 84 82 82 83 83 85 90 96 95 94 96 84 90 93 89 88 87 84 79 75
282 145 116 100 105 100 114 116 103 92 109 105 93 90 116 137 145 142 137 134 130 122 115 108 102 99 100 100 98 96 95 91 105 104 103 114 101 96 96 77 81 87 89 89 88 88 88 91 89
7 111 83 64 81 107 108 100 120 144 124 121 119 117 129 145 154 153 150 144 139 134 124 115 112 105 102 96 96 93 93 93 96 102 108 99 91 84 87 95 90 91 96 100 92 97 112 106 88
77 90 92 77 83 103 104 81 106 141 107 122 134 140 148 155 159 160 156 148 138 135 132 128 125 114 105 100 95 90 91 95 102 106 112 104 101 106 99 106 113 108 113 99 103 107 78 73 67
107 82 98 101 96 93 95 101 95 82 83 101 126 142 153 160 164 169 164 154 148 146 139 137 136 127 119 109 98 96 99 102 102 113 110 106 95 94 96 103 96 99 92 86 82 77 80 75 74
112 95 83 90 95 99 104 103 96 98 111 117 130 146 158 164 169 174 172 165 159 153 153 149 145 134 125 106 94 105 102 109 108 104 111 108 109 102 100 100 101 94 94 99 89 85 81 74 71
111 113 101 92 96 106 109 103 136 134 134 131 140 151 162 166 171 172 176 173 168 168 166 157 161 156 150 141 134 94 91 108 102 111 119 116 110 105 104 104 102 94 91 93 99 90 86 79 74
137 128 108 85 91 99 114 95 133 137 145 145 153 160 167 176 181 189 188 189 184 179 172 163 168 167 163 148 121 102 103 114 113 114 123 123 119 121 113 105 101 99 105 105 95 94 91 89 87
170 170 135 86 64 98 226 101 102 132 154 159 170 175 182 188 196 196 195 195 188 184 173 161 169 172 165 155 151 135 121 108 105 106 107 119 123 120 118 115 107 107 107 106 101 101 104 101 90
182 153 127 108 73 113 214 150 127 163 177 188 189 192 196 195 202 198 197 195 188 183 177 171 172 175 168 162 163 149 147 137 126 123 121 123 126 140 141 132 134 131 128 118 119 110 107 102 95
160 144 117 84 65 113 261 240 203 197 196 193 195 202 203 210 208 201 200 199 194 191 184 178 177 180 169 168 172 156 155 153 135 129 136 128 138 134 129 147 157 142 134 132 132 121 113 108 115
169 154 99 36 8 311 288 252 227 199 201 202 203 200 205 212 205 197 198 197 195 193 194 187 187 182 177 174 179 176 171 165 150 141 146 148 152 141 135 157 152 157 152 147 150 141 142 151 157
175 182 100 63 22 305 301 281 210 201 213 223 219 208 205 205 196 186 192 191 194 195 199 195 193 188 186 182 180 176 168 168 152 146 143 157 159 151 155 174 168 165 160 162 161 163 175 163 199
191 241 251 290 313 228 270 231 159 160 179 196 214 211 203 202 202 186 188 187 189 195 197 198 194 188 188 180 171 159 156 176 171 166 162 155 161 161 171 184 177 172 180 173 179 182 194 194 196
223 208 226 244 254 274 281 257 148 151 164 172 190 195 203 197 198 187 186 188 194 197 197 196 192 189 183 179 182 182 190 194 194 185 173 156 154 160 174 179 180 174 181 177 189 186 197 213 205
228 169 227 265 270 252 253 250 140 151 184 184 176 190 199 205 198 187 189 192 194 192 194 193 187 186 180 182 185 195 198 197 189 182 174 168 144 144 170 181 177 171 179 183 185 188 204 210 228
160 182 208 235 247 239 262 263 158 126 284 284 222 193 196 195 192 186 180 180 182 180 185 186 183 181 179 184 189 198 195 192 181 179 173 172 158 157 165 174 179 177 181 183 188 188 191 209 210
211 240 226 213 212 198 179 257 238 54 346 292 253 198 183 179 179 179 176 176 177 178 181 184 184 182 183 188 193 199 198 192 185 181 176 179 167 166 175 178 183 182 176 171 178 180 180 184 196
231 264 275 283 266 202 204 236 100 64 50 79 155 160 158 162 167 169 173 179 180 180 182 184 185 186 185 190 195 197 189 191 183 184 177 180 175 169 163 172 174 166 163 165 167 181 180 182 186
231 241 282 279 273 264 214 195 167 133 97 77 108 149 162 168 169 168 170 176 177 179 182 185 185 185 185 189 190 188 184 184 179 182 181 175 169 160 164 164 161 156 167 172 175 184 179 182 194
266 250 236 248 266 257 235 227 226 192 324 0 10 219 194 183 179 173 170 172 172 172 173 177 185 187 182 183 182 182 185 183 182 179 176 175 168 155 163 164 164 158 161 160 167 178 176 173 162
207 214 229 247 272 281 268 200 68 199 244 283 298 293 212 197 188 178 175 171 162 160 165 170 178 182 179 180 181 179 185 185 180 180 180 183 176 170 173 177 175 160 159 158 160 166 161 176 172
249 246 238 253 251 265 279 274 103 138 175 258 288 316 160 181 186 177 169 163 162 159 164 170 176 176 178 181 180 182 181 182 183 182 184 188 185 184 185 175 172 171 176 177 174 176 178 191 200
Height
1519 1519 1520 1522 1521 1520 1523 1523 1520 1522 1523 1527 1527 1527 1527 1529 1531 1539 1540 1538 1539 1539 1540 1540 1540 1540 1540 1540 1540 1540 1540 1539 1539 1539 1539 1539 1540 1540 1541 1541 1541 1541 1541 1541 1541 1541 1541 1541 1540
1519 1520 1522 1522 1519 1523 1526 1523 1523 1525 1527 1529 1529 1530 1530 1533 1536 1538 1538 1539 1540 1540 1541 1541 1540 1541 1541 1541 1541 1541 1541 1541 1540 1540 1540 1540 1541 1541 1542 1542 1542 1542 1542 1542 1542 1542 1542 1542 1542
1520 1520 1523 1519 1520 1523 1526 1524 1525 1528 1529 1530 1531 1532 1534 1537 1538 1539 1540 1540 1541 1542 1542 1542 1542 1542 1542 1542 1542 1542 1542 1542 1542 1542 1542 1542 1542 1542 1543 1543 1544 1544 1544 1544 1544 1543 1543 1543 1543
1521 1523 1522 1520 1523 1523 1524 1525 1526 1528 1530 1531 1532 1534 1537 1539 1540 1540 1540 1541 1542 1543 1543 1543 1543 1543 1543 1543 1543 1543 1543 1543 1543 1543 1543 1543 1544 1544 1544 1545 1545 1545 1545 1545 1545 1545 1545 1545 1544
1522 1522 1520 1523 1524 1525 1525 1527 1527 1528 1530 1532 1533 1535 1538 1540 1541 1541 1542 1543 1544 1544 1545 1544 1544 1544 1544 1544 1545 1545 1545 1545 1545 1545 1545 1545 1545 1546 1546 1546 1546 1546 1546 1546 1546 1546 1546 1546 1546
1523 1520 1521 1525 1526 1526 1527 1529 1529 1529 1531 1534 1535 1536 1540 1542 1542 1543 1543 1544 1545 1545 1546 1546 1545 1546 1546 1546 1546 1546 1546 1546 1546 1546 1546 1547 1547 1547 1548 1548 1548 1548 1548 1548 1548 1548 1548 1548 1547
1523 1520 1522 1525 1528 1528 1529 1530 1530 1530 1532 1534 1536 1537 1540 1543 1543 1544 1545 1545 1546 1547 1547 1548 1548 1548 1548 1548 1548 1548 1548 1548 1548 1548 1548 1548 1549 1549 1549 1550 1550 1550 1550 1550 1549 1549 1549 1549 1549
1523 1521 1523 1525 1528 1529 1531 1531 1532 1533 1534 1536 1537 1537 1540 1543 1543 1545 1546 1547 1548 1548 1549 1549 1550 1550 1550 1550 1550 1550 1550 1550 1550 1550 1550 1550 1551 1551 1551 1552 1551 1551 1552 1551 1551 1551 1551 1551 1550
1524 1523 1525 1526 1528 1529 1531 1531 1534 1535 1535 1537 1538 1539 1541 1543 1544 1546 1547 1548 1549 1550 1550 1551 1551 1551 1551 1552 1551 1551 1552 1552 1552 1552 1552 1553 1554 1554 1554 1553 1553 1553 1553 1553 1553 1553 1553 1552 1552
1524 1525 1527 1528 1528 1529 1531 1532 1533 1534 1535 1537 1539 1541 1542 1543 1545 1547 1548 1549 1550 1551 1552 1552 1552 1552 1553 1553 1553 1553 1554 1554 1554 1555 1555 1555 1555 1555 1555 1555 1555 1555 1555 1555 1555 1554 1554 1555 1555
1525 1526 1528 1529 1530 1531 1531 1533 1534 1533 1534 1536 1538 1541 1542 1544 1546 1548 1549 1550 1551 1552 1552 1553 1553 1554 1554 1554 1555 1555 1555 1555 1555 1556 1556 1556 1556 1557 1557 1557 1557 1557 1557 1557 1557 1557 1557 1557 1556
1527 1528 1529 1531 1532 1532 1532 1533 1534 1535 1537 1538 1539 1541 1543 1545 1547 1548 1550 1551 1552 1553 1553 1554 1555 1555 1555 1555 1555 1556 1556 1556 1557 1557 1558 1558 1558 1558 1558 1558 1559 1559 1559 1558 1559 1558 1559 1558 1558
1528 1530 1531 1532 1532 1533 1533 1534 1535 1537 1538 1539 1540 1542 1544 1546 1547 1549 1550 1551 1552 1553 1554 1554 1555 1556 1556 1556 1556 1557 1557 1558 1558 1558 1559 1559 1559 1559 1559 1560 1559 1560 1560 1560 1560 1560 1560 1560 1559
1530 1531 1532 1532 1533 1533 1533 1534 1536 1538 1539 1540 1541 1543 1545 1546 1547 1549 1550 1551 1552 1553 1554 1555 1555 1556 1557 1557 1558 1558 1558 1558 1559 1559 1560 1560 1560 1560 1560 1561 1560 1561 1561 1561 1561 1561 1561 1561 1560
1531 1530 1531 1532 1533 1534 1534 1534 1535 1538 1539 1540 1542 1543 1545 1546 1547 1548 1550 1551 1552 1553 1554 1555 1556 1557 1557 1558 1558 1559 1559 1560 1560 1560 1561 1561 1561 1561 1561 1562 1562 1562 1562 1562 1562 1562 1562 1562 1561
1529 1529 1532 1533 1533 1534 1535 1537 1536 1539 1539 1540 1541 1543 1544 1546 1547 1548 1549 1551 1552 1553 1554 1555 1556 1557 1558 1558 1558 1559 1560 1560 1561 1561 1561 1562 1562 1562 1562 1562 1562 1562 1562 1562 1562 1563 1563 1563 1563
1528 1531 1533 1533 1533 1533 1533 1536 1536 1538 1539 1540 1541 1542 1543 1545 1546 1547 1549 1550 1552 1553 1554 1555 1556 1557 1558 1558 1559 1559 1560 1560 1561 1561 1561 1562 1562 1562 1562 1562 1563 1563 1563 1563 1563 1563 1564 1564 1563
1532 1530 1532 1533 1532 1533 1533 1534 1535 1537 1538 1538 1540 1541 1542 1543 1545 1546 1547 1549 1551 1552 1553 1554 1556 1557 1557 1558 1559 1560 1560 1561 1561 1561 1561 1562 1562 1562 1562 1562 1563 1563 1563 1563 1563 1563 1563 1564 1564
1528 1530 1532 1533 1532 1533 1532 1533 1533 1535 1536 1537 1538 1539 1540 1542 1543 1545 1546 1547 1549 1551 1552 1554 1555 1556 1557 1558 1559 1560 1560 1561 1561 1561 1562 1562 1562 1562 1562 1562 1563 1563 1563 1563 1563 1563 1564 1564 1564
1529 1531 1532 1532 1532 1532 1532 1532 1531 1533 1534 1536 1536 1537 1539 1540 1542 1543 1544 1546 1548 1549 1551 1553 1554 1555 1556 1557 1558 1559 1560 1560 1561 1561 1561 1561 1562 1562 1562 1562 1562 1563 1563 1563 1563 1563 1564 1564 1564
1530 1532 1533 1534 1533 1530 1532 1532 1530 1531 1534 1535 1536 1537 1537 1539 1540 1541 1543 1544 1546 1548 1549 1551 1552 1554 1555 1556 1557 1558 1559 1559 1560 1560 1560 1561 1561 1561 1561 1561 1562 1562 1562 1563 1563 1563 1563 1564 1564
1532 1531 1532 1533 1532 1533 1533 1537 1529 1529 1531 1532 1534 1535 1536 1537 1539 1540 1541 1542 1544 1546 1548 1549 1551 1552 1554 1555 1556 1557 1558 1559 1559 1560 1560 1560 1560 1560 1560 1560 1561 1561 1562 1562 1562 1562 1563 1563 1564
1530 1531 1531 1531 1530 1532 1530 1533 1529 1527 1529 1529 1531 1533 1535 1536 1537 1538 1539 1541 1543 1544 1546 1548 1549 1551 1552 1554 1555 1556 1557 1558 1558 1559 1559 1559 1559 1559 1559 1560 1560 1560 1561 1561 1561 1561 1562 1562 1563
1530 1531 1532 1530 1529 1537 1532 1533 1533 1526 1527 1527 1529 1531 1533 1534 1535 1537 1538 1540 1541 1543 1544 1546 1548 1549 1551 1552 1554 1555 1556 1557 1557 1558 1558 1558 1559 1558 1558 1559 1559 1559 1560 1560 1560 1560 1560 1561 1561
1529 1531 1537 1538 1537 1536 1529 1532 1530 1524 1525 1527 1528 1529 1531 1532 1534 1535 1536 1538 1539 1541 1542 1544 1546 1548 1549 1551 1552 1554 1555 1556 1556 1557 1557 1557 1558 1558 1557 1558 1558 1558 1558 1559 1559 1559 1559 1559 1559
1528 1529 1538 1543 1539 1533 1530 1530 1525 1524 1526 1527 1528 1529 1530 1531 1533 1534 1535 1536 1538 1539 1541 1543 1544 1546 1547 1549 1551 1552 1553 1554 1555 1555 1556 1556 1557 1557 1557 1556 1557 1557 1557 1557 1557 1558 1558 1558 1558
1528 1528 1527 1531 1531 1534 1528 1525 1523 1523 1525 1526 1527 1528 1529 1530 1532 1533 1534 1535 1537 1538 1539 1541 1543 1545 1546 1548 1549 1551 1552 1552 1553 1554 1555 1555 1555 1555 1555 1555 1555 1556 1555 1556 1556 1556 1556 1557 1557
1526 1526 1528 1532 1538 1538 1532 1529 1526 1523 1523 1524 1525 1527 1528 1530 1531 1532 1533 1534 1536 1537 1539 1540 1542 1543 1545 1546 1547 1549 1550 1551 1552 1552 1553 1554 1554 1554 1554 1554 1554 1554 1554 1554 1554 1555 1555 1555 1555
1528 1528 1527 1528 1529 1534 1536 1530 1519 1521 1523 1524 1525 1526 1527 1529 1530 1531 1532 1533 1534 1536 1537 1539 1540 1542 1543 1544 1546 1547 1548 1549 1550 1551 1551 1552 1553 1553 1553 1553 1553 1554 1553 1553 1553 1554 1554 1554 1554
1526 1525 1526 1531 1531 1529 1530 1529 1519 1521 1523 1524 1525 1526 1527 1528 1529 1530 1531 1532 1533 1535 1536 1538 1539 1540 1541 1543 1544 1545 1546 1548 1549 1549 1550 1551 1551 1552 1552 1552 1552 1552 1552 1552 1552 1552 1552 1553 1553